When you browse on this site, cookies collect data to enhance your experience and personalize the content and advertising you see.
Visit our Privacy Policy to learn more. By continuing to use the site, you agree to this use of cookies and data.
  • In Slovakia
  • List of Countries
  • For 7 days
  • Water Temperature
  • Weather Map
  • Weather Widgets
  • user-avatar
    Login

    Hourly Weather Edchicy

    Today, 18 August, Sunday

    Time Temperature Precipitation Wind Pressure Humidity
    00:00 +13°C° 0 mm 0 mps 745 mmHg 85%
    01:00 +13°C° 0 mm 1 mps 745 mmHg 85%
    02:00 +12°C° 0 mm 0 mps 745 mmHg 85%
    03:00 +13°C° 0 mm 1 mps 745 mmHg 86%
    04:00 +13°C° 0 mm 1 mps 745 mmHg 86%
    05:00 +13°C° 0 mm 2 mps 744 mmHg 86%
    06:00 +15°C° 0 mm 1 mps 744 mmHg 81%
    07:00 +16°C° 0 mm 1 mps 745 mmHg 77%
    08:00 +19°C° 0 mm 1 mps 745 mmHg 72%
    09:00 +20°C° 0 mm 1 mps 745 mmHg 68%
    10:00 +22°C° 0 mm 1 mps 745 mmHg 63%
    11:00 +23°C° 0 mm 1 mps 745 mmHg 58%
    12:00 +24°C° 0 mm 2 mps 745 mmHg 57%
    13:00 +25°C° 0 mm 2 mps 745 mmHg 56%
    14:00 +25°C° 0 mm 3 mps 745 mmHg 56%
    15:00 +25°C° 0.1 mm 2 mps 745 mmHg 59%
    16:00 +25°C° 0.1 mm 2 mps 745 mmHg 63%
    17:00 +24°C° 0.1 mm 2 mps 745 mmHg 66%
    18:00 +23°C° 0 mm 2 mps 745 mmHg 71%
    19:00 +20°C° 0 mm 2 mps 745 mmHg 76%
    20:00 +20°C° 0 mm 1 mps 745 mmHg 81%
    21:00 +18°C° 0 mm 2 mps 745 mmHg 83%
    22:00 +17°C° 0 mm 2 mps 745 mmHg 84%
    23:00 +17°C° 0 mm 2 mps 745 mmHg 86%

    Tomorrow, 19 August, Monday

    Time Temperature Precipitation Wind Pressure Humidity
    00:00 +16°C° 0 mm 2 mps 745 mmHg 86%
    01:00 +16°C° 0 mm 3 mps 745 mmHg 87%
    02:00 +16°C° 0 mm 3 mps 745 mmHg 87%
    03:00 +16°C° 0 mm 3 mps 745 mmHg 86%
    04:00 +16°C° 0 mm 3 mps 745 mmHg 84%
    05:00 +16°C° 0 mm 3 mps 745 mmHg 83%
    06:00 +17°C° 0 mm 3 mps 745 mmHg 82%
    07:00 +19°C° 0 mm 4 mps 745 mmHg 80%
    08:00 +20°C° 0 mm 4 mps 745 mmHg 79%
    09:00 +22°C° 0 mm 4 mps 746 mmHg 76%
    10:00 +23°C° 0 mm 4 mps 746 mmHg 72%
    11:00 +26°C° 0 mm 4 mps 746 mmHg 69%
    12:00 +27°C° 0.5 mm 4 mps 746 mmHg 69%
    13:00 +28°C° 0.5 mm 4 mps 746 mmHg 68%
    14:00 +28°C° 0.5 mm 4 mps 746 mmHg 67%
    15:00 +28°C° 0.9 mm 3 mps 746 mmHg 70%
    16:00 +28°C° 0.9 mm 3 mps 746 mmHg 73%
    17:00 +27°C° 0.9 mm 2 mps 747 mmHg 76%
    18:00 +26°C° 0.2 mm 2 mps 747 mmHg 79%
    19:00 +24°C° 0.2 mm 2 mps 747 mmHg 83%
    20:00 +23°C° 0.2 mm 2 mps 747 mmHg 87%
    21:00 +21°C° 1 mm 3 mps 747 mmHg 89%
    22:00 +21°C° 1 mm 3 mps 747 mmHg 91%
    23:00 +20°C° 1 mm 3 mps 747 mmHg 93%

    Day after tomorrow, 20 August, Tuesday

    Time Temperature Precipitation Wind Pressure Humidity
    00:00 +20°C° 0.8 mm 2 mps 747 mmHg 94%
    01:00 +20°C° 0.8 mm 2 mps 748 mmHg 94%
    02:00 +21°C° 0.8 mm 1 mps 748 mmHg 95%
    03:00 +20°C° 0 mm 1 mps 748 mmHg 96%
    04:00 +20°C° 0 mm 1 mps 748 mmHg 96%
    05:00 +19°C° 0 mm 2 mps 748 mmHg 97%
    06:00 +20°C° 0.2 mm 2 mps 749 mmHg 95%
    07:00 +20°C° 0.2 mm 2 mps 749 mmHg 94%
    08:00 +21°C° 0.2 mm 2 mps 749 mmHg 93%
    09:00 +23°C° 0 mm 2 mps 749 mmHg 89%
    10:00 +23°C° 0 mm 2 mps 750 mmHg 86%
    11:00 +24°C° 0 mm 2 mps 750 mmHg 83%
    12:00 +25°C° 0 mm 2 mps 750 mmHg 79%
    13:00 +25°C° 0 mm 2 mps 750 mmHg 75%
    14:00 +26°C° 0 mm 2 mps 750 mmHg 71%
    15:00 +26°C° 0 mm 2 mps 750 mmHg 71%
    16:00 +26°C° 0 mm 2 mps 750 mmHg 70%
    17:00 +26°C° 0 mm 2 mps 750 mmHg 70%
    18:00 +24°C° 0 mm 2 mps 750 mmHg 76%
    19:00 +23°C° 0 mm 2 mps 751 mmHg 81%
    20:00 +20°C° 0 mm 2 mps 751 mmHg 87%
    21:00 +20°C° 0 mm 2 mps 751 mmHg 88%
    22:00 +19°C° 0 mm 2 mps 751 mmHg 90%
    23:00 +19°C° 0 mm 2 mps 751 mmHg 91%

    21 August, Wednesday

    Time Temperature Precipitation Wind Pressure Humidity
    00:00 +18°C° 0 mm 2 mps 751 mmHg 92%
    01:00 +18°C° 0 mm 2 mps 751 mmHg 93%
    02:00 +18°C° 0 mm 2 mps 751 mmHg 93%
    03:00 +18°C° 0 mm 2 mps 751 mmHg 94%
    04:00 +17°C° 0 mm 2 mps 751 mmHg 95%
    05:00 +17°C° 0 mm 2 mps 751 mmHg 96%
    06:00 +19°C° 0 mm 2 mps 751 mmHg 93%
    07:00 +20°C° 0 mm 2 mps 751 mmHg 90%
    08:00 +21°C° 0 mm 2 mps 751 mmHg 87%
    09:00 +24°C° 0.2 mm 2 mps 750 mmHg 82%
    10:00 +25°C° 0.2 mm 2 mps 750 mmHg 78%
    11:00 +26°C° 0.2 mm 2 mps 750 mmHg 73%
    12:00 +27°C° 1.1 mm 2 mps 749 mmHg 71%
    13:00 +28°C° 1.1 mm 3 mps 749 mmHg 70%
    14:00 +28°C° 1.1 mm 3 mps 748 mmHg 68%
    15:00 +28°C° 0.3 mm 3 mps 748 mmHg 69%
    16:00 +28°C° 0.3 mm 2 mps 748 mmHg 71%
    17:00 +27°C° 0.3 mm 2 mps 747 mmHg 73%
    18:00 +26°C° 0.2 mm 3 mps 748 mmHg 76%
    19:00 +24°C° 0.2 mm 3 mps 748 mmHg 80%
    20:00 +22°C° 0.2 mm 3 mps 748 mmHg 83%
    21:00 +20°C° 0.1 mm 4 mps 748 mmHg 87%
    22:00 +19°C° 0.1 mm 5 mps 749 mmHg 90%
    23:00 +16°C° 0.1 mm 6 mps 749 mmHg 94%

    22 August, Thursday

    Time Temperature Precipitation Wind Pressure Humidity
    00:00 +15°C° 0.1 mm 6 mps 749 mmHg 92%
    01:00 +15°C° 0.1 mm 6 mps 750 mmHg 91%
    02:00 +14°C° 0.1 mm 6 mps 750 mmHg 90%
    03:00 +14°C° 0 mm 5 mps 750 mmHg 90%
    04:00 +14°C° 0 mm 5 mps 750 mmHg 89%
    05:00 +14°C° 0 mm 5 mps 750 mmHg 89%
    06:00 +14°C° 0 mm 5 mps 751 mmHg 87%
    07:00 +14°C° 0 mm 5 mps 751 mmHg 86%
    08:00 +14°C° 0 mm 5 mps 752 mmHg 85%
    09:00 +16°C° 0 mm 5 mps 752 mmHg 80%
    10:00 +17°C° 0 mm 5 mps 752 mmHg 75%
    11:00 +19°C° 0 mm 5 mps 753 mmHg 70%
    12:00 +20°C° 0 mm 5 mps 752 mmHg 67%
    13:00 +21°C° 0 mm 5 mps 752 mmHg 65%
    14:00 +21°C° 0 mm 4 mps 752 mmHg 63%
    15:00 +21°C° 0 mm 4 mps 752 mmHg 65%
    16:00 +21°C° 0 mm 4 mps 752 mmHg 66%
    17:00 +21°C° 0 mm 4 mps 752 mmHg 68%
    18:00 +19°C° 0 mm 3 mps 752 mmHg 73%
    19:00 +18°C° 0 mm 3 mps 752 mmHg 78%
    20:00 +16°C° 0 mm 2 mps 753 mmHg 83%
    21:00 +15°C° 0 mm 2 mps 753 mmHg 84%
    22:00 +15°C° 0 mm 2 mps 753 mmHg 86%
    23:00 +14°C° 0 mm 2 mps 753 mmHg 88%

    23 August, Friday

    Time Temperature Precipitation Wind Pressure Humidity
    00:00 +13°C° 0 mm 2 mps 753 mmHg 89%
    01:00 +13°C° 0 mm 2 mps 753 mmHg 90%
    02:00 +13°C° 0 mm 2 mps 753 mmHg 91%
    03:00 +12°C° 0 mm 2 mps 753 mmHg 91%
    04:00 +12°C° 0 mm 2 mps 753 mmHg 91%
    05:00 +12°C° 0 mm 2 mps 753 mmHg 91%
    06:00 +13°C° 0 mm 2 mps 753 mmHg 87%
    07:00 +15°C° 0 mm 2 mps 753 mmHg 83%
    08:00 +16°C° 0 mm 2 mps 753 mmHg 78%
    09:00 +18°C° 0 mm 2 mps 753 mmHg 73%
    10:00 +19°C° 0 mm 2 mps 753 mmHg 68%
    11:00 +20°C° 0 mm 2 mps 753 mmHg 62%
    12:00 +21°C° 0 mm 2 mps 753 mmHg 59%
    13:00 +21°C° 0 mm 2 mps 753 mmHg 56%
    14:00 +23°C° 0 mm 2 mps 753 mmHg 53%
    15:00 +23°C° 0 mm 2 mps 753 mmHg 56%
    16:00 +21°C° 0 mm 2 mps 753 mmHg 59%
    17:00 +21°C° 0 mm 3 mps 753 mmHg 62%
    18:00 +19°C° 0 mm 2 mps 753 mmHg 68%
    19:00 +17°C° 0 mm 2 mps 753 mmHg 73%
    20:00 +16°C° 0 mm 2 mps 753 mmHg 79%
    21:00 +15°C° 0 mm 2 mps 753 mmHg 82%
    22:00 +14°C° 0 mm 2 mps 753 mmHg 85%
    23:00 +14°C° 0 mm 2 mps 754 mmHg 88%
    Show more